| time (UTC) | temp F | wind direction | speed knots | gust knots | rain 1hr in | rain 24hr in | rain mn in | humidity % | barometer mb |
| 20260906191502 | 74 | 31 | 3.5 | 6.1 | 0.00 | 0.00 | 0.00 | 71 | 1019.0 |
| 20260906190106 | 73 | 52 | 4.3 | 7.0 | 0.00 | 0.00 | 0.00 | 69 | 1019.1 |
| 20260906184626 | 74 | 68 | 5.2 | 7.8 | 0.00 | 0.00 | 0.00 | 72 | 1019.1 |
| 20260906183059 | 73 | 9 | 2.6 | 6.1 | 0.00 | 0.00 | 0.00 | 74 | 1019.3 |
| 20260906181559 | 73 | 68 | 4.3 | 6.1 | 0.00 | 0.00 | 0.00 | 77 | 1019.4 |
| 20260906180058 | 73 | 76 | 4.3 | 7.8 | 0.00 | 0.00 | 0.00 | 77 | 1019.5 |
| 20260906174558 | 74 | 30 | 4.3 | 7.8 | 0.00 | 0.00 | 0.00 | 77 | 1019.4 |
| 20260906173101 | 73 | 32 | 4.3 | 6.1 | 0.00 | 0.00 | 0.00 | 77 | 1019.5 |
| 20260906171559 | 73 | 17 | 3.5 | 6.1 | 0.00 | 0.00 | 0.00 | 75 | 1019.6 |
| 20260906164556 | 73 | 67 | 3.5 | 7.0 | 0.00 | 0.00 | 0.00 | 73 | 1019.5 |
| 20260906163055 | 74 | 40 | 3.5 | 6.1 | 0.00 | 0.00 | 0.00 | 70 | 1019.7 |
| 20260906161554 | 74 | 47 | 2.6 | 6.1 | 0.00 | 0.00 | 0.00 | 70 | 1019.6 |
| 20260906160053 | 75 | 46 | 4.3 | 6.1 | 0.00 | 0.00 | 0.00 | 72 | 1019.7 |
| 20260906154550 | 74 | 71 | 1.7 | 4.3 | 0.00 | 0.00 | 0.00 | 71 | 1019.7 |
| 20260906153047 | 73 | 51 | 1.7 | 6.1 | 0.00 | 0.00 | 0.00 | 73 | 1019.7 |
| 20260906151551 | 73 | 113 | 0.9 | 3.5 | 0.00 | 0.00 | 0.00 | 71 | 1019.9 |
| 20260906150045 | 72 | 120 | 0.9 | 3.5 | 0.00 | 0.00 | 0.00 | 71 | 1020.0 |
| 20260906144547 | 72 | 113 | 1.7 | 3.5 | 0.00 | 0.00 | 0.00 | 71 | 1019.9 |
| 20260906143043 | 72 | 103 | 0.9 | 2.6 | 0.00 | 0.00 | 0.00 | 71 | 1019.8 |
| 20260906141542 | 71 | 103 | 0.0 | 4.3 | 0.00 | 0.00 | 0.00 | 71 | 1019.9 |
| 20260906140049 | 72 | 121 | 1.7 | 3.5 | 0.00 | 0.00 | 0.00 | 70 | 1019.8 |
| 20260906134541 | 72 | 122 | 0.9 | 2.6 | 0.00 | 0.00 | 0.00 | 72 | 1019.8 |
| 20260906133041 | 69 | 236 | 0.9 | 2.6 | 0.00 | 0.00 | 0.00 | 72 | 1019.7 |
| 20260906131531 | 67 | 237 | 0.0 | 0.9 | 0.00 | 0.00 | 0.00 | 73 | 1019.7 |
| 20260906130028 | 66 | 237 | 0.0 | 1.7 | 0.00 | 0.00 | 0.00 | 75 | 1019.8 |
| 20260906124530 | 64 | 237 | 0.0 | 0.0 | 0.00 | 0.00 | 0.00 | 78 | 1019.8 |
| 20260906123031 | 62 | 237 | 0.0 | 1.7 | 0.00 | 0.00 | 0.00 | 81 | 1019.7 |
| 20260906121518 | 60 | 237 | 0.0 | 0.0 | 0.00 | 0.00 | 0.00 | 83 | 1019.8 |
| 20260906120017 | 59 | 237 | 0.0 | 1.7 | 0.00 | 0.00 | 0.00 | 84 | 1019.6 |
| 20260906114519 | 58 | 237 | 0.0 | 0.9 | 0.00 | 0.00 | 0.00 | 84 | 1019.5 |
| 20260906113015 | 58 | 247 | 0.0 | 2.6 | 0.00 | 0.00 | 0.00 | 83 | 1019.4 |
| 20260906111511 | 58 | 246 | 1.7 | 3.5 | 0.00 | 0.00 | 0.00 | 84 | 1019.1 |
| 20260906110011 | 58 | 248 | 0.0 | 0.9 | 0.00 | 0.00 | 0.00 | 83 | 1019.0 |
| 20260906104511 | 58 | 248 | 0.0 | 0.9 | 0.00 | 0.01 | 0.00 | 84 | 1019.0 |
| 20260906103022 | 58 | 248 | 0.0 | 1.7 | 0.00 | 0.01 | 0.00 | 83 | 1019.0 |
| 20260906101508 | 58 | 248 | 0.0 | 2.6 | 0.00 | 0.01 | 0.00 | 83 | 1019.1 |
| 20260906100021 | 59 | 234 | 0.0 | 1.7 | 0.00 | 0.01 | 0.00 | 83 | 1018.9 |
| 20260906094506 | 59 | 234 | 0.0 | 2.6 | 0.00 | 0.01 | 0.00 | 83 | 1019.0 |
| 20260906093004 | 59 | 186 | 0.9 | 3.5 | 0.00 | 0.01 | 0.00 | 83 | 1019.0 |
| 20260906091504 | 59 | 234 | 0.0 | 2.6 | 0.00 | 0.01 | 0.00 | 83 | 1019.0 |
| 20260906090003 | 59 | 241 | 0.0 | 1.7 | 0.00 | 0.01 | 0.00 | 83 | 1018.9 |
| 20260906084503 | 59 | 240 | 0.9 | 2.6 | 0.00 | 0.01 | 0.00 | 84 | 1018.9 |
| 20260906083102 | 59 | 234 | 0.0 | 0.9 | 0.00 | 0.01 | 0.00 | 85 | 1018.8 |
| 20260906081600 | 59 | 234 | 0.0 | 0.9 | 0.00 | 0.01 | 0.00 | 85 | 1018.6 |
| 20260906080100 | 59 | 234 | 0.0 | 1.7 | 0.00 | 0.01 | 0.00 | 84 | 1018.5 |
| 20260906074559 | 59 | 238 | 0.0 | 0.0 | 0.00 | 0.01 | 0.00 | 85 | 1018.8 |
| 20260906073059 | 59 | 238 | 0.0 | 0.0 | 0.00 | 0.01 | 0.00 | 86 | 1018.7 |
| 20260906071557 | 59 | 238 | 0.0 | 0.0 | 0.00 | 0.01 | 0.00 | 85 | 1018.6 |
| 20260906070056 | 59 | 238 | 0.0 | 0.0 | 0.00 | 0.01 | 0.00 | 86 | 1018.6 |
| 20260906064557 | 59 | 238 | 0.0 | 0.0 | 0.00 | 0.01 | 0.00 | 87 | 1018.5 |
| 20260906063053 | 59 | 238 | 0.0 | 0.0 | 0.00 | 0.01 | 0.00 | 87 | 1018.4 |
| 20260906061551 | 59 | 238 | 0.0 | 1.7 | 0.00 | 0.01 | 0.00 | 87 | 1018.5 |
| 20260906060050 | 60 | 238 | 0.0 | 0.0 | 0.00 | 0.01 | 0.00 | 87 | 1018.2 |
| 20260906054549 | 60 | 238 | 0.0 | 0.0 | 0.00 | 0.01 | 0.00 | 88 | 1018.1 |
| 20260906053048 | 60 | 238 | 0.0 | 0.0 | 0.00 | 0.01 | 0.00 | 89 | 1018.1 |
| 20260906051546 | 60 | 238 | 0.0 | 0.0 | 0.00 | 0.01 | 0.00 | 89 | 1017.9 |
| 20260906050046 | 60 | 238 | 0.0 | 0.0 | 0.00 | 0.01 | 0.00 | 90 | 1017.8 |
| 20260906044545 | 60 | 238 | 0.0 | 0.0 | 0.00 | 0.01 | 0.00 | 90 | 1017.8 |
| 20260906043043 | 60 | 238 | 0.0 | 0.0 | 0.00 | 0.01 | 0.00 | 90 | 1018.0 |
| 20260906041542 | 60 | 238 | 0.0 | 0.0 | 0.00 | 0.01 | 0.00 | 91 | 1017.7 |
| 20260906040039 | 61 | 238 | 0.0 | 0.0 | 0.00 | 0.01 | 0.00 | 91 | 1017.5 |
| 20260906034538 | 61 | 238 | 0.0 | 0.0 | 0.00 | 0.01 | 0.01 | 92 | 1017.4 |
| 20260906033038 | 61 | 238 | 0.0 | 0.0 | 0.00 | 0.01 | 0.01 | 92 | 1017.4 |
| 20260906031540 | 61 | 238 | 0.0 | 0.0 | 0.00 | 0.01 | 0.01 | 93 | 1017.5 |
| 20260906030037 | 62 | 238 | 0.0 | 0.0 | 0.00 | 0.01 | 0.01 | 93 | 1017.4 |
| 20260906024539 | 62 | 238 | 0.0 | 0.0 | 0.00 | 0.01 | 0.01 | 94 | 1017.3 |
| 20260906023042 | 62 | 238 | 0.0 | 0.0 | 0.00 | 0.01 | 0.01 | 94 | 1017.3 |
| 20260906021542 | 63 | 238 | 0.0 | 0.0 | 0.00 | 0.01 | 0.01 | 94 | 1017.2 |
| 20260906020035 | 63 | 81 | 0.0 | 1.7 | 0.00 | 0.01 | 0.01 | 94 | 1017.3 |
| 20260906014541 | 63 | 81 | 0.0 | 1.7 | 0.00 | 0.01 | 0.01 | 93 | 1017.2 |
| 20260906013041 | 63 | 81 | 0.0 | 0.9 | 0.00 | 0.01 | 0.01 | 93 | 1017.2 |
| 20260906011535 | 64 | 81 | 0.0 | 0.0 | 0.00 | 0.01 | 0.01 | 93 | 1017.3 |
| 20260906010033 | 64 | 81 | 0.0 | 0.0 | 0.00 | 0.01 | 0.01 | 93 | 1017.2 |
| 20260906004534 | 64 | 81 | 0.0 | 0.0 | 0.00 | 0.01 | 0.01 | 92 | 1017.2 |
| 20260906003032 | 65 | 81 | 0.0 | 0.0 | 0.00 | 0.01 | 0.01 | 91 | 1017.2 |
| 20260906001531 | 65 | 81 | 0.0 | 0.0 | 0.00 | 0.01 | 0.01 | 91 | 1017.3 |
| 20260906000031 | 65 | 81 | 0.0 | 2.6 | 0.00 | 0.01 | 0.01 | 90 | 1017.1 |
| 20260905234531 | 66 | 43 | 2.6 | 4.3 | 0.00 | 0.01 | 0.01 | 91 | 1017.1 |
| 20260905233030 | 66 | 5 | 1.7 | 2.6 | 0.00 | 0.01 | 0.01 | 90 | 1017.4 |
| 20260905231530 | 66 | 36 | 1.7 | 4.3 | 0.00 | 0.01 | 0.01 | 89 | 1017.3 |
| 20260905230029 | 67 | 5 | 2.6 | 4.3 | 0.00 | 0.01 | 0.01 | 89 | 1017.4 |
| 20260905224531 | 67 | 19 | 1.7 | 4.3 | 0.00 | 0.01 | 0.01 | 88 | 1017.3 |
| 20260905223029 | 68 | 43 | 2.6 | 5.2 | 0.00 | 0.01 | 0.01 | 88 | 1017.2 |
| 20260905221528 | 68 | 5 | 2.6 | 7.0 | 0.00 | 0.01 | 0.01 | 86 | 1017.3 |
| 20260905220027 | 69 | 9 | 5.2 | 7.0 | 0.00 | 0.01 | 0.01 | 85 | 1017.1 |
| 20260905214527 | 69 | 42 | 4.3 | 6.1 | 0.00 | 0.01 | 0.01 | 83 | 1017.2 |
| 20260905213026 | 70 | 28 | 3.5 | 7.0 | 0.00 | 0.01 | 0.01 | 83 | 1017.1 |
| 20260905211526 | 71 | 61 | 2.6 | 7.0 | 0.00 | 0.01 | 0.01 | 82 | 1016.9 |
| 20260905210027 | 72 | 5 | 3.5 | 7.0 | 0.00 | 0.01 | 0.01 | 79 | 1016.8 |
| 20260905204526 | 73 | 75 | 3.5 | 8.7 | 0.00 | 0.01 | 0.01 | 77 | 1016.6 |
| 20260905203025 | 74 | 19 | 2.6 | 7.0 | 0.00 | 0.01 | 0.01 | 75 | 1017.0 |
| 20260905201525 | 73 | 51 | 3.5 | 7.8 | 0.00 | 0.01 | 0.01 | 78 | 1017.1 |
| 20260905200032 | 74 | 360 | 5.2 | 8.7 | 0.00 | 0.01 | 0.01 | 78 | 1017.1 |
| 20260905194524 | 74 | 355 | 5.2 | 7.8 | 0.00 | 0.01 | 0.01 | 77 | 1017.0 |
| 20260905193026 | 74 | 33 | 5.2 | 8.7 | 0.00 | 0.01 | 0.01 | 78 | 1017.2 |